{"data":{"norad_id":64034,"intl_designator":"2025-102N","name":"STARLINK-33946","alt_names":[],"object_type":"PAYLOAD","status":"ACTIVE","operator":null,"country":"US","launch_date":"2025-05-16","launch_site_code":"AFWTR","launch_vehicle":null,"mission":null,"orbit_class":"UNKNOWN","rcs_meters":null,"size_class":null,"mass_kg":null,"dimensions":null,"purposes":["comms"],"wikipedia_slug":null,"has_3d_model":false,"image_url":null,"decayed_at":null,"tle_current":{"epoch":"2026-09-20T22:00:03.000096Z","epoch_age_seconds":107580,"freshness":"FRESH","line1":"1 64034U 25102N   26263.91670139 -.00025919  00000+0 -87720-3 0  9996","line2":"2 64034  70.0008 340.0908 0003307 268.2357 273.8897 15.30421932  5777","mean_motion":15.30421932,"eccentricity":0.0003307,"inclination_deg":70.0008,"raan_deg":340.0908,"arg_perigee_deg":268.2357,"mean_anomaly_deg":273.8897,"bstar":-0.0008772,"rev_number":577,"period_min":94.091699151107,"perigee_km":472.28631613188,"apogee_km":476.81868496755,"semimajor_km":6852.6895005497,"source":"CELESTRAK","updated_at":"2026-09-21T09:00:35.188280Z"}}}